Tracking 28081 objects as of 27-Sep-2023
HD Live streaming from Space Station
objects crossing your sky now

GALAXY 3R

Track GALAXY 3R now!
GALAXY 3R is classified as:


NORAD ID: 23741
Int'l Code: 1995-069A
Perigee: 35,750.4 km
Apogee: 35,806.6 km
Inclination: 12.3 °
Period: 1,435.3 minutes
Semi major axis: 42149 km
RCS: 12.3125 m2 (large)
Launch date: December 15, 1995
Source: United States (US)
Launch site: AIR FORCE EASTERN TEST RANGE (AFETR)

24 C-band, 16 Ku-band; North America, Caribbean; 140 television channels.
Your satellite tracking list
Your tracking list is empty




NASA's NSSDC Master Catalog

Two Line Element Set (TLE):
1 23741U 95069A   23269.47542494 -.00000065  00000-0  00000+0 0  9998
2 23741  12.3391  23.1450 0006662 112.5892 286.2406  1.00326242101832
Source of the keplerian elements: AFSPC